Tracking 30101 objects as of 14-Dec-2024
HD Live streaming from Space Station
objects crossing your sky now

PSLV DEB

Track PSLV DEB now!
10-day predictions


NORAD ID: 35536
Int'l Code: 2001-049QL
Perigee: 678.3 km
Apogee: 1,286.0 km
Inclination: 98.7 °
Period: 104.6 minutes
Semi major axis: 7353 km
RCS: 0.0116 m2 (small)
Launch date: October 22, 2001
Source: India (IND)
Launch site: SRIHARIKOTA (SRI)

Note: This is SATELLITE DEBRIS
Your satellite tracking list
Your tracking list is empty




NASA's NSSDC Master Catalog

Two Line Element Set (TLE):
1 35536U 01049QL  24347.52338003  .00001285  00000-0  71462-3 0  9999
2 35536  98.6955  78.2041 0413230  39.8529 323.2208 13.76877347 70939
Source of the keplerian elements: AFSPC